Voltar ao catálogo

STARLINK-30934

AtivoComunicaçõesVLEO
NORAD 58395·PAYLOAD·🇺🇸 United States

Lançado Nov 20, 2023 de Vandenberg Space Force Base

Loading…

Próximas Passagens (próximas 24 horas)

TLE

AtualizadoSource: CelesTrak SupGP

Época: Sep 15, 2026, 01:41 UTC

1 58395C 23178X   26258.07062500 -.00001564  00000+0 -46173-4 0  2584
2 58395  53.1576 197.4552 0001437  94.8877 258.7938 15.34418850    12

Acompanhe STARLINK-30934 em tempo real com AllMySat

Download on the App Store